Location: Ethel Rock
(53.4667°N, 4.5667°W)
Time: 05:19:59
(UTC+00:00)

SKYMED 2 - Pass Details

Date: 24 October 2020
Orbit: 621 x 623 km, 97.9° (Epoch: 25 November)

Event Time Altitude Azimuth Distance (km) Brightness Sun altitude
Rises 06:13:56 0° 195° (SSW) 2,896 6.9 -7.9°
Reaches altitude 10° 06:16:22 10° 207° (SSW) 1,994 6.0 -7.5°
Maximum altitude 06:20:06 27° 266° (W) 1,195 4.5 -7.0°
Drops below altitude 10° 06:23:51 10° 326° (NW) 2,008 5.8 -6.4°
Sets 06:26:20 0° 338° (NNW) 2,920 6.7 -6.1°
